Location: Saint John
(45.2733°N, 66.0633°W)
Time: 19:18:38
(UTC-04:00)

BlueWalker 3 - Pass Details

Date: 03 December 2022
Orbit: 499 x 517 km, 53.2° (Epoch: 05 February)

Event Time Altitude Azimuth Distance (km) Brightness Sun altitude
Rises 18:06:43 0° 293° (WNW) 2,629 6.4 -14.3°
Reaches altitude 10° 18:09:12 10° 306° (NW) 1,738 5.2 -14.7°
Maximum altitude 18:12:31 25° 4° (N) 1,057 3.4 -15.3°
Enters shadow 18:13:41 22° 32° (NNE) 1,160 3.3 -15.5°
